Lid_Strength_Index
0 -0 0 0 -0 0 1 2 2 5 4 2 2 -1 -1 -1 -0 -0 -1 2 3 2 3 3 3 3 2 2 2 3 3 3 3 2 2 1 0 0
0 0 0 0 0 0 0 2 2 2 4 2 1 1 -0 -0 -1 -1 -0 2 2 3 3 3 4 4 4 4 4 4 4 4 3 3 3 3 2 2
-0 0 0 -0 0 0 0 0 1 2 3 2 1 -0 0 -0 -1 -1 -1 -1 -1 2 2 4 5 5 5 5 5 5 5 5 4 4 4 2 1 1
1 0 1 0 0 0 1 1 1 1 2 3 1 1 0 -0 -1 -0 -0 -1 -1 1 3 4 5 5 5 6 7 7 8 7 6 5 3 2 -0 -1
0 1 1 0 1 1 0 1 1 1 1 2 2 0 0 -0 0 -0 -0 -1 -1 1 2 3 3 4 5 7 8 9 10 9 8 5 3 2 2 2
0 0 0 0 0 1 1 1 1 1 1 2 2 2 1 0 0 1 1 -0 0 -0 0 2 3 3 6 8 8 9 10 9 8 6 4 4 4 3
0 -0 -0 0 1 1 0 0 1 1 1 2 2 2 2 2 2 1 2 1 0 -0 0 -0 -1 -1 4 6 6 7 8 7 7 6 5 5 5 5
1 0 -0 1 1 3 3 3 1 1 2 2 2 3 2 2 1 1 1 2 3 -1 0 1 -1 0 4 4 7 8 8 7 6 5 5 5 6 6
1 1 1 0 1 -0 2 4 4 4 3 1 2 2 2 1 1 1 1 2 2 0 0 2 -0 1 4 6 8 8 8 6 5 5 5 6 6 7
0 0 0 0 0 0 0 1 0 0 1 2 1 0 -0 -0 -0 0 0 1 0 0 -0 3 0 1 5 7 7 8 8 7 6 5 5 6 7 7
0 0 0 0 2 5 1 1 1 1 2 5 5 5 6 6 4 0 2 2 3 2 0 1 1 1 5 6 6 8 9 8 7 6 6 6 7 7
1 0 4 1 5 7 1 1 2 1 0 0 -0 2 5 3 7 2 1 2 2 3 0 2 2 1 3 4 6 5 5 8 8 8 7 7 8 4
1 1 0 6 8 8 7 1 1 1 1 1 1 0 0 -0 -0 1 1 1 2 2 0 0 1 1 2 4 4 4 4 4 4 5 7 8 8 7
1 1 1 7 8 9 8 6 7 7 1 1 1 1 1 1 0 -0 -1 -1 -1 0 -0 -0 1 2 3 4 3 3 3 4 4 4 4 6 7 7
1 2 5 8 9 8 8 7 8 3 2 2 2 2 1 0 -0 -0 -1 -1 -1 -1 1 1 1 1 2 2 2 4 4 4 5 5 4 4 5 5
3 2 3 5 6 4 4 6 4 3 2 2 2 1 0 0 1 0 1 1 1 1 2 3 1 1 3 2 3 4 5 3 5 5 5 4 4 4
3 1 1 2 2 1 2 2 2 3 3 3 2 2 1 1 1 0 1 1 2 2 2 4 4 2 2 2 3 3 3 4 4 5 5 4 4 4
4 2 2 2 2 2 2 2 1 3 2 2 2 2 2 2 2 1 1 2 2 2 2 4 5 5 4 4 4 3 4 4 5 5 5 4 3 4
2 2 2 2 2 2 2 2 2 1 1 1 1 2 2 1 2 2 2 2 2 2 3 3 4 4 4 5 3 6 4 5 5 4 4 4 4 3
2 2 2 2 2 2 2 2 2 1 1 1 1 1 2 2 2 2 2 2 2 2 4 4 4 3 3 3 3 3 9 4 4 3 3 4 4 6
4 2 2 2 2 2 2 2 1 1 2 1 2 1 1 2 2 2 2 8 5 3 4 4 3 6 3 3 3 3 3 10 5 3 3 4 4 5
2 2 2 1 2 2 2 2 2 2 2 2 2 2 3 4 4 5 4 3 3 3 4 4 4 4 4 3 3 3 2 2 7 8 5 4 2 4
2 2 2 2 1 1 2 3 3 2 2 3 4 4 4 4 4 3 3 2 2 3 4 5 4 4 4 4 4 3 3 3 3 2 1 6 6 6